Volver al catálogo

KUIPER-00595

ActivoComunicacionesLEO
NORAD 69280·PAYLOAD·🇺🇸 United States

Lanzado May 29, 2026 desde Vandenberg Space Force Base

Loading…

Próximos Pases (próximas 24 horas)

TLE

ActualizadoSource: CelesTrak SupGP

Época: Sep 14, 2026, 23:23 UTC

1 69280C 26118P   26257.97437500 -.00056063  00000+0 -73413-2 0  2578
2 69280  51.8990 346.0923 0001297 153.5344 127.8721 14.79972593    15

Sigue KUIPER-00595 en tiempo real con AllMySat

Download on the App Store